Ellensburg, WA

1:07 PM PDT on April 25, 2017 (GMT -0700)
Bowers

Weather History for KELN - February, 2013

Change the Weather History Date:

Friday, February 1, 2013

  Actual Average (KYKM) Record (KYKM)
Temperature  
Mean Temperature 43 °F -  
Max Temperature 53 °F 39 °F 59 °F (1971)
Min Temperature 30 °F 23 °F -25 °F (1950)
Degree Days  
Heating Degree Days 22    
Moisture  
Dew Point 31 °F    
Average Humidity 69    
Maximum Humidity 79    
Minimum Humidity 45    
Precipitation  
Precipitation 0.00 in - - ()
Sea Level Pressure  
Sea Level Pressure 30.36 in    
Wind  
Wind Speed 8 mph (North)    
Max Wind Speed 15 mph    
Max Gust Speed -    
Visibility 10 miles    
Events      
Averages and records for this station are not official NWS values.
T = Trace of Precipitation, MM = Missing Value Source: NWS Daily Summary

Daily Weather History Graph

Daily Weather History Graph

Search for Another Location

Airport or City:

Trip Planner

Search our weather history database for the weather conditions in past years. The results will help you decide how hot, cold, wet, or windy it might be!

Date:

Astronomy

Feb. 01, 2013 Rise Set
Actual Time 7:26 AM PST 5:05 PM PST
Civil Twilight 6:54 AM PST 5:38 PM PST
Nautical Twilight 6:17 AM PST 6:14 PM PST
Astronomical Twilight 5:41 AM PST 6:50 PM PST
Moon 11:47 PM PST (2/1) 9:36 AM PST (2/1)
Length of Visible Light 10h 43m
Length of Day
9h 38m
Waning Gibbous, 69% of the Moon is Illuminated
Feb 1
Waning Gibbous
Feb 3
Last Quarter
Feb 9
New
Feb 17
First Quarter
Feb 25
Full

Hourly Weather History & Observations

Time (PST) Temp. Windchill Dew Point Humidity Pressure Visibility Wind Dir Wind Speed Gust Speed Precip Events Conditions
12:53 AM 39.9 °F 32.5 °F 33.1 °F 77% 30.26 in 10.0 mi NW 12.7 mph - N/A   Clear
1:53 AM 39.9 °F 34.5 °F 33.1 °F 77% 30.28 in 10.0 mi North 8.1 mph - N/A   Clear
2:53 AM 39.9 °F 33.9 °F 32.0 °F 73% 30.29 in 10.0 mi NW 9.2 mph - N/A   Clear
3:53 AM 39.0 °F 31.0 °F 32.0 °F 76% 30.27 in 10.0 mi WNW 13.8 mph - N/A   Clear
4:53 AM 37.0 °F 29.8 °F 30.9 °F 79% 30.30 in 10.0 mi West 10.4 mph - N/A   Clear
5:53 AM 37.0 °F 30.4 °F 30.0 °F 76% 30.30 in 10.0 mi WNW 9.2 mph - N/A   Clear
6:53 AM 39.0 °F 30.6 °F 30.9 °F 73% 30.30 in 10.0 mi WNW 15.0 mph - N/A   Clear
7:53 AM 39.0 °F 32.3 °F 30.9 °F 73% 30.32 in 10.0 mi NW 10.4 mph - N/A   Clear
8:53 AM 41.0 °F 39.0 °F 30.9 °F 67% 30.34 in 10.0 mi East 3.5 mph - N/A   Clear
9:53 AM 44.1 °F 42.5 °F 33.1 °F 65% 30.35 in 10.0 mi East 3.5 mph - N/A   Clear
10:53 AM 46.0 °F 43.9 °F 34.0 °F 63% 30.36 in 10.0 mi East 4.6 mph - N/A   Clear
11:53 AM 48.9 °F - 33.1 °F 54% 30.36 in 10.0 mi ENE 3.5 mph - N/A   Clear
1:53 PM 52.0 °F - 35.1 °F 53% 30.35 in 10.0 mi South 5.8 mph - N/A   Clear
2:53 PM 53.1 °F - 32.0 °F 45% 30.35 in 10.0 mi Calm Calm - N/A   Clear
3:53 PM 52.0 °F - 32.0 °F 47% 30.36 in 10.0 mi SSE 3.5 mph - N/A   Clear
4:53 PM 46.0 °F 44.8 °F 33.1 °F 61% 30.38 in 10.0 mi ENE 3.5 mph - N/A   Clear
5:53 PM 39.9 °F - 30.0 °F 68% 30.39 in 10.0 mi Calm Calm - N/A   Clear
6:53 PM 34.0 °F 29.8 °F 27.0 °F 75% 30.41 in 10.0 mi NE 4.6 mph - N/A   Clear
7:53 PM 34.0 °F - 27.0 °F 75% 30.43 in 10.0 mi Calm Calm - N/A   Clear
8:53 PM 35.1 °F - 27.0 °F 72% 30.44 in 10.0 mi Calm Calm - N/A   Clear
9:53 PM 34.0 °F - 27.0 °F 75% 30.45 in 10.0 mi Calm Calm - N/A   Clear
10:53 PM 33.1 °F - 26.1 °F 75% 30.45 in 10.0 mi Calm Calm - N/A   Clear
11:53 PM 30.9 °F - 25.0 °F 79% 30.46 in 10.0 mi Calm Calm - N/A   Clear